Wetterdaten: Freitag, 28.03.2014
Datum Zeit Temperatur Luftfeuchte Luftdruck Regen Wind Richtung Richtung Taupunkt Windchill Windben
28.03.2014 00:00 0,4 C 86 % 1011,2 hPa 0,0 l/m 0,0 km/h (0 Bft) SW 225 -1,7 C 16,1 C 0,0 km/h (0 Bft)
28.03.2014 00:05 0,2 C 86 % 1011,2 hPa 0,0 l/m 0,0 km/h (0 Bft) SW 225 -1,9 C 16,1 C 0,0 km/h (0 Bft)
28.03.2014 00:10 0,3 C 86 % 1011,1 hPa 0,0 l/m 0,0 km/h (0 Bft) SW 225 -1,8 C 16,1 C 0,0 km/h (0 Bft)
28.03.2014 00:15 0,5 C 85 % 1011,1 hPa 0,0 l/m 0,0 km/h (0 Bft) SW 225 -1,7 C 16,1 C 0,0 km/h (0 Bft)
28.03.2014 00:20 0,2 C 85 % 1011,1 hPa 0,0 l/m 0,0 km/h (0 Bft) SW 225 -2,0 C 16,1 C 0,0 km/h (0 Bft)
28.03.2014 00:25 0,0 C 85 % 1011,1 hPa 0,0 l/m 0,0 km/h (0 Bft) SW 225 -2,2 C 16,1 C 0,0 km/h (0 Bft)
28.03.2014 00:30 -0,1 C 85 % 1011,1 hPa 0,0 l/m 0,0 km/h (0 Bft) SW 225 -2,3 C 16,1 C 0,0 km/h (0 Bft)
28.03.2014 00:35 -0,4 C 84 % 1011,1 hPa 0,0 l/m 0,0 km/h (0 Bft) SW 225 -2,8 C 16,1 C 0,0 km/h (0 Bft)
28.03.2014 00:40 -0,4 C 84 % 1011,1 hPa 0,0 l/m 0,0 km/h (0 Bft) SW 225 -2,8 C 16,1 C 0,0 km/h (0 Bft)
28.03.2014 00:45 -0,9 C 84 % 1011,1 hPa 0,0 l/m 0,0 km/h (0 Bft) SW 225 -3,3 C 16,1 C 0,0 km/h (0 Bft)
28.03.2014 00:50 -1,0 C 84 % 1011,2 hPa 0,0 l/m 0,0 km/h (0 Bft) SW 225 -3,4 C 16,1 C 0,0 km/h (0 Bft)
28.03.2014 00:55 -0,9 C 84 % 1011,2 hPa 0,0 l/m 0,0 km/h (0 Bft) SW 225 -3,3 C 16,1 C 0,0 km/h (0 Bft)
28.03.2014 01:00 -1,1 C 84 % 1011,2 hPa 0,0 l/m 0,0 km/h (0 Bft) SW 225 -3,4 C 16,1 C 0,0 km/h (0 Bft)
28.03.2014 01:05 -1,5 C 84 % 1011,2 hPa 0,0 l/m 0,0 km/h (0 Bft) SW 225 -3,8 C 16,1 C 0,0 km/h (0 Bft)
28.03.2014 01:10 -1,5 C 84 % 1011,2 hPa 0,0 l/m 0,0 km/h (0 Bft) SW 225 -3,8 C 16,1 C 0,0 km/h (0 Bft)
28.03.2014 01:15 -1,8 C 84 % 1011,2 hPa 0,0 l/m 0,0 km/h (0 Bft) SW 225 -4,1 C 16,1 C 0,0 km/h (0 Bft)
28.03.2014 01:20 -2,0 C 84 % 1011,2 hPa 0,0 l/m 0,0 km/h (0 Bft) SW 225 -4,3 C 16,1 C 0,0 km/h (0 Bft)
28.03.2014 01:25 -1,7 C 85 % 1011,2 hPa 0,0 l/m 0,0 km/h (0 Bft) SW 225 -3,9 C 16,1 C 0,0 km/h (0 Bft)
28.03.2014 01:30 -1,6 C 86 % 1011,5 hPa 0,0 l/m 0,0 km/h (0 Bft) SW 225 -3,6 C 16,1 C 0,0 km/h (0 Bft)
28.03.2014 01:35 -1,4 C 87 % 1011,5 hPa 0,0 l/m 0,0 km/h (0 Bft) SW 225 -3,3 C 16,1 C 0,0 km/h (0 Bft)
28.03.2014 01:40 -1,7 C 87 % 1011,5 hPa 0,0 l/m 0,0 km/h (0 Bft) SW 225 -3,6 C 16,1 C 0,0 km/h (0 Bft)
28.03.2014 01:45 -1,8 C 86 % 1011,5 hPa 0,0 l/m 0,0 km/h (0 Bft) SW 225 -3,8 C 16,1 C 0,0 km/h (0 Bft)
28.03.2014 01:50 -1,6 C 86 % 1011,5 hPa 0,0 l/m 0,0 km/h (0 Bft) SW 225 -3,6 C 16,1 C 0,0 km/h (0 Bft)
28.03.2014 01:55 -1,8 C 86 % 1011,5 hPa 0,0 l/m 0,0 km/h (0 Bft) SW 225 -3,8 C 16,1 C 0,0 km/h (0 Bft)
28.03.2014 02:00 -1,8 C 86 % 1011,5 hPa 0,0 l/m 0,0 km/h (0 Bft) SW 225 -3,8 C 16,1 C 0,0 km/h (0 Bft)
28.03.2014 02:05 -2,3 C 86 % 1011,5 hPa 0,0 l/m 0,0 km/h (0 Bft) SW 225 -4,3 C 16,1 C 0,0 km/h (0 Bft)
28.03.2014 02:10 -2,2 C 86 % 1011,6 hPa 0,0 l/m 0,0 km/h (0 Bft) SW 225 -4,2 C 16,1 C 0,0 km/h (0 Bft)
28.03.2014 02:15 -2,3 C 86 % 1011,6 hPa 0,0 l/m 0,0 km/h (0 Bft) SW 225 -4,3 C 16,1 C 0,0 km/h (0 Bft)
28.03.2014 02:20 -2,4 C 86 % 1011,6 hPa 0,0 l/m 0,0 km/h (0 Bft) SW 225 -4,4 C 16,1 C 0,0 km/h (0 Bft)
28.03.2014 02:25 -1,9 C 87 % 1011,6 hPa 0,0 l/m 0,0 km/h (0 Bft) SW 225 -3,8 C 16,1 C 0,0 km/h (0 Bft)
28.03.2014 02:28 -2,3 C 87 % 1011,8 hPa 0,0 l/m 0,0 km/h (0 Bft) SW 225 -4,2 C 16,1 C 0,0 km/h (0 Bft)
28.03.2014 02:30 -2,3 C 87 % 1011,8 hPa 0,0 l/m 0,0 km/h (0 Bft) SW 225 -4,2 C 16,1 C 0,0 km/h (0 Bft)
28.03.2014 02:35 -2,3 C 87 % 1011,8 hPa 0,0 l/m 0,0 km/h (0 Bft) SW 225 -4,2 C 16,1 C 0,0 km/h (0 Bft)
28.03.2014 02:40 -2,0 C 87 % 1011,8 hPa 0,0 l/m 0,0 km/h (0 Bft) SW 225 -3,9 C 16,1 C 0,0 km/h (0 Bft)
28.03.2014 02:45 -2,3 C 87 % 1011,8 hPa 0,0 l/m 0,0 km/h (0 Bft) SW 225 -4,2 C 16,1 C 0,0 km/h (0 Bft)
28.03.2014 02:50 -2,0 C 87 % 1011,6 hPa 0,0 l/m 0,0 km/h (0 Bft) SW 225 -3,9 C 16,1 C 0,0 km/h (0 Bft)
28.03.2014 02:55 -2,5 C 87 % 1011,6 hPa 0,0 l/m 0,0 km/h (0 Bft) SW 225 -4,4 C 16,1 C 0,0 km/h (0 Bft)
28.03.2014 03:00 -2,6 C 87 % 1011,6 hPa 0,0 l/m 0,0 km/h (0 Bft) SW 225 -4,5 C 16,1 C 0,0 km/h (0 Bft)
28.03.2014 03:05 -2,8 C 87 % 1011,6 hPa 0,0 l/m 0,0 km/h (0 Bft) SW 225 -4,7 C 16,1 C 0,0 km/h (0 Bft)
28.03.2014 03:10 -2,7 C 87 % 1011,8 hPa 0,0 l/m 0,0 km/h (0 Bft) SW 225 -4,6 C 16,1 C 0,0 km/h (0 Bft)
28.03.2014 03:15 -2,9 C 87 % 1011,8 hPa 0,0 l/m 0,0 km/h (0 Bft) SW 225 -4,8 C 16,1 C 0,0 km/h (0 Bft)
28.03.2014 03:20 -2,7 C 87 % 1011,8 hPa 0,0 l/m 0,0 km/h (0 Bft) SW 225 -4,6 C 16,1 C 0,0 km/h (0 Bft)
28.03.2014 03:25 -2,1 C 88 % 1011,8 hPa 0,0 l/m 0,0 km/h (0 Bft) SW 225 -3,8 C 16,1 C 0,0 km/h (0 Bft)
28.03.2014 03:30 -2,2 C 88 % 1012,0 hPa 0,0 l/m 0,0 km/h (0 Bft) SW 225 -3,9 C 16,1 C 0,0 km/h (0 Bft)
28.03.2014 03:35 -2,1 C 88 % 1012,0 hPa 0,0 l/m 0,0 km/h (0 Bft) SW 225 -3,8 C 16,1 C 0,0 km/h (0 Bft)
28.03.2014 03:40 -1,6 C 88 % 1012,0 hPa 0,0 l/m 0,0 km/h (0 Bft) SW 225 -3,3 C 16,1 C 0,0 km/h (0 Bft)
28.03.2014 03:45 -1,1 C 89 % 1012,0 hPa 0,0 l/m 0,0 km/h (0 Bft) SW 225 -2,7 C 16,1 C 0,0 km/h (0 Bft)
28.03.2014 03:50 -0,9 C 89 % 1012,1 hPa 0,0 l/m 0,0 km/h (0 Bft) SW 225 -2,5 C 16,1 C 0,0 km/h (0 Bft)
28.03.2014 03:55 -0,7 C 89 % 1012,1 hPa 0,0 l/m 0,0 km/h (0 Bft) SW 225 -2,3 C 16,1 C 0,0 km/h (0 Bft)
28.03.2014 04:00 -0,9 C 89 % 1012,1 hPa 0,0 l/m 0,0 km/h (0 Bft) SW 225 -2,5 C 16,1 C 0,0 km/h (0 Bft)
28.03.2014 04:05 -0,9 C 89 % 1012,1 hPa 0,0 l/m 0,0 km/h (0 Bft) SW 225 -2,5 C 16,1 C 0,0 km/h (0 Bft)
28.03.2014 04:10 -1,0 C 88 % 1012,8 hPa 0,0 l/m 0,0 km/h (0 Bft) SW 225 -2,7 C 16,1 C 0,0 km/h (0 Bft)
28.03.2014 04:15 -1,1 C 88 % 1012,8 hPa 0,0 l/m 0,0 km/h (0 Bft) SW 225 -2,8 C 16,1 C 0,0 km/h (0 Bft)
28.03.2014 04:20 -1,0 C 88 % 1012,8 hPa 0,0 l/m 0,0 km/h (0 Bft) SW 225 -2,7 C 16,1 C 0,0 km/h (0 Bft)
28.03.2014 04:25 -0,9 C 88 % 1012,8 hPa 0,0 l/m 0,0 km/h (0 Bft) SW 225 -2,6 C 16,1 C 0,0 km/h (0 Bft)
28.03.2014 04:30 -0,9 C 88 % 1012,5 hPa 0,0 l/m 0,0 km/h (0 Bft) SW 225 -2,6 C 16,1 C 0,0 km/h (0 Bft)
28.03.2014 04:35 -0,9 C 87 % 1012,5 hPa 0,0 l/m 0,0 km/h (0 Bft) SW 225 -2,8 C 16,1 C 0,0 km/h (0 Bft)
28.03.2014 04:40 -0,8 C 87 % 1012,5 hPa 0,0 l/m 0,0 km/h (0 Bft) SW 225 -2,7 C 16,1 C 0,0 km/h (0 Bft)
28.03.2014 04:45 -0,6 C 87 % 1012,5 hPa 0,0 l/m 0,0 km/h (0 Bft) SW 225 -2,5 C 16,1 C 0,0 km/h (0 Bft)
28.03.2014 04:50 -0,5 C 87 % 1012,6 hPa 0,0 l/m 0,0 km/h (0 Bft) SW 225 -2,4 C 16,1 C 0,0 km/h (0 Bft)
28.03.2014 04:55 -0,6 C 86 % 1012,6 hPa 0,0 l/m 0,0 km/h (0 Bft) SW 225 -2,6 C 16,1 C 0,0 km/h (0 Bft)
28.03.2014 05:00 -0,7 C 86 % 1012,6 hPa 0,0 l/m 0,0 km/h (0 Bft) SW 225 -2,7 C 16,1 C 0,0 km/h (0 Bft)
28.03.2014 05:05 -1,2 C 85 % 1012,6 hPa 0,0 l/m 0,0 km/h (0 Bft) SW 225 -3,4 C 16,1 C 0,0 km/h (0 Bft)
28.03.2014 05:10 -1,2 C 85 % 1012,8 hPa 0,0 l/m 0,0 km/h (0 Bft) SW 225 -3,4 C 16,1 C 0,0 km/h (0 Bft)
28.03.2014 05:15 -1,3 C 85 % 1012,8 hPa 0,0 l/m 0,0 km/h (0 Bft) SW 225 -3,5 C 16,1 C 0,0 km/h (0 Bft)
28.03.2014 05:20 -1,3 C 85 % 1012,8 hPa 0,0 l/m 0,0 km/h (0 Bft) SW 225 -3,5 C 16,1 C 0,0 km/h (0 Bft)
28.03.2014 05:25 -1,2 C 86 % 1012,8 hPa 0,0 l/m 0,0 km/h (0 Bft) SW 225 -3,2 C 16,1 C 0,0 km/h (0 Bft)
28.03.2014 05:30 -1,6 C 86 % 1012,9 hPa 0,0 l/m 0,0 km/h (0 Bft) SW 225 -3,6 C 16,1 C 0,0 km/h (0 Bft)
28.03.2014 05:35 -1,0 C 86 % 1012,9 hPa 0,0 l/m 0,0 km/h (0 Bft) SW 225 -3,0 C 16,1 C 0,0 km/h (0 Bft)
28.03.2014 05:40 -1,1 C 86 % 1012,9 hPa 0,0 l/m 0,0 km/h (0 Bft) SW 225 -3,1 C 16,1 C 0,0 km/h (0 Bft)
28.03.2014 05:45 -1,6 C 86 % 1012,9 hPa 0,0 l/m 0,0 km/h (0 Bft) SW 225 -3,6 C 16,1 C 0,0 km/h (0 Bft)
28.03.2014 05:50 -1,8 C 86 % 1013,4 hPa 0,0 l/m 0,0 km/h (0 Bft) SW 225 -3,8 C 16,1 C 0,0 km/h (0 Bft)
28.03.2014 05:55 -1,8 C 86 % 1013,4 hPa 0,0 l/m 0,0 km/h (0 Bft) SW 225 -3,8 C 16,1 C 0,0 km/h (0 Bft)
28.03.2014 06:00 -1,6 C 86 % 1013,4 hPa 0,0 l/m 0,0 km/h (0 Bft) SW 225 -3,6 C 16,1 C 0,0 km/h (0 Bft)
28.03.2014 06:05 -1,3 C 87 % 1013,4 hPa 0,0 l/m 0,0 km/h (0 Bft) SW 225 -3,2 C 16,1 C 0,0 km/h (0 Bft)
28.03.2014 06:10 -1,8 C 87 % 1013,1 hPa 0,0 l/m 0,0 km/h (0 Bft) SW 225 -3,7 C 16,1 C 0,0 km/h (0 Bft)
28.03.2014 06:15 -2,1 C 86 % 1013,1 hPa 0,0 l/m 0,0 km/h (0 Bft) SW 225 -4,1 C 16,1 C 0,0 km/h (0 Bft)
28.03.2014 06:20 -2,3 C 86 % 1013,1 hPa 0,0 l/m 0,0 km/h (0 Bft) SW 225 -4,3 C 16,1 C 0,0 km/h (0 Bft)
28.03.2014 06:25 -2,3 C 86 % 1013,1 hPa 0,0 l/m 0,0 km/h (0 Bft) SW 225 -4,3 C 16,1 C 0,0 km/h (0 Bft)
28.03.2014 06:30 -2,0 C 86 % 1013,4 hPa 0,0 l/m 0,0 km/h (0 Bft) SW 225 -4,0 C 16,1 C 0,0 km/h (0 Bft)
28.03.2014 06:35 -2,5 C 86 % 1013,4 hPa 0,0 l/m 0,0 km/h (0 Bft) SW 225 -4,5 C 16,1 C 0,0 km/h (0 Bft)
28.03.2014 06:40 -2,5 C 86 % 1013,4 hPa 0,0 l/m 0,0 km/h (0 Bft) SW 225 -4,5 C 16,1 C 0,0 km/h (0 Bft)
28.03.2014 06:45 -2,6 C 86 % 1013,4 hPa 0,0 l/m 0,0 km/h (0 Bft) SW 225 -4,6 C 16,1 C 0,0 km/h (0 Bft)
28.03.2014 06:50 -2,6 C 86 % 1013,4 hPa 0,0 l/m 0,0 km/h (0 Bft) SW 225 -4,6 C 16,1 C 0,0 km/h (0 Bft)
28.03.2014 06:55 -2,5 C 86 % 1013,4 hPa 0,0 l/m 0,0 km/h (0 Bft) SW 225 -4,5 C 16,1 C 0,0 km/h (0 Bft)
28.03.2014 07:00 -2,4 C 86 % 1013,4 hPa 0,0 l/m 0,0 km/h (0 Bft) SW 225 -4,4 C 16,1 C 0,0 km/h (0 Bft)
28.03.2014 07:05 -2,2 C 87 % 1013,4 hPa 0,0 l/m 0,0 km/h (0 Bft) SW 225 -4,1 C 16,1 C 0,0 km/h (0 Bft)
28.03.2014 07:10 -1,7 C 87 % 1013,6 hPa 0,0 l/m 0,0 km/h (0 Bft) SW 225 -3,6 C 16,1 C 0,0 km/h (0 Bft)
28.03.2014 07:15 -1,3 C 87 % 1013,6 hPa 0,0 l/m 0,0 km/h (0 Bft) SW 225 -3,2 C 16,1 C 0,0 km/h (0 Bft)
28.03.2014 07:20 -0,5 C 88 % 1013,6 hPa 0,0 l/m 0,0 km/h (0 Bft) SW 225 -2,2 C 16,1 C 0,0 km/h (0 Bft)
28.03.2014 07:25 0,9 C 86 % 1013,6 hPa 0,0 l/m 0,0 km/h (0 Bft) SW 225 -1,2 C 16,1 C 0,0 km/h (0 Bft)
28.03.2014 07:28 0,9 C 86 % 1013,8 hPa 0,0 l/m 0,0 km/h (0 Bft) SW 225 -1,2 C 16,1 C 0,0 km/h (0 Bft)
28.03.2014 07:30 0,9 C 86 % 1013,8 hPa 0,0 l/m 0,0 km/h (0 Bft) SW 225 -1,2 C 16,1 C 0,0 km/h (0 Bft)
28.03.2014 07:35 3,7 C 82 % 1013,8 hPa 0,0 l/m 0,0 km/h (0 Bft) SW 225 0,9 C 16,1 C 0,0 km/h (0 Bft)
28.03.2014 07:40 3,7 C 77 % 1013,8 hPa 0,0 l/m 0,0 km/h (0 Bft) SW 225 0,1 C 16,1 C 0,0 km/h (0 Bft)
28.03.2014 07:45 2,3 C 78 % 1013,8 hPa 0,0 l/m 0,0 km/h (0 Bft) SW 225 -1,1 C 16,1 C 0,0 km/h (0 Bft)
28.03.2014 07:50 1,4 C 79 % 1014,0 hPa 0,0 l/m 0,0 km/h (0 Bft) SW 225 -1,8 C 16,1 C 0,0 km/h (0 Bft)
28.03.2014 07:55 1,1 C 82 % 1014,0 hPa 0,0 l/m 0,0 km/h (0 Bft) SW 225 -1,6 C 16,1 C 0,0 km/h (0 Bft)
28.03.2014 08:00 2,2 C 84 % 1014,0 hPa 0,0 l/m 0,0 km/h (0 Bft) SW 225 -0,2 C 16,1 C 0,0 km/h (0 Bft)
28.03.2014 08:05 6,4 C 81 % 1014,0 hPa 0,0 l/m 0,0 km/h (0 Bft) SW 225 3,4 C 16,1 C 0,0 km/h (0 Bft)
28.03.2014 08:10 8,0 C 79 % 1014,4 hPa 0,0 l/m 0,0 km/h (0 Bft) SW 225 4,6 C 16,1 C 0,0 km/h (0 Bft)
28.03.2014 08:15 8,7 C 77 % 1014,4 hPa 0,0 l/m 0,0 km/h (0 Bft) SW 225 4,9 C 16,1 C 0,0 km/h (0 Bft)
28.03.2014 08:20 9,3 C 76 % 1014,4 hPa 0,0 l/m 0,0 km/h (0 Bft) SW 225 5,3 C 16,1 C 0,0 km/h (0 Bft)
28.03.2014 08:25 10,2 C 75 % 1014,4 hPa 0,0 l/m 0,0 km/h (0 Bft) SW 225 6,0 C 16,1 C 0,0 km/h (0 Bft)
28.03.2014 08:30 10,0 C 74 % 1014,6 hPa 0,0 l/m 0,0 km/h (0 Bft) SW 225 5,6 C 16,1 C 0,0 km/h (0 Bft)
28.03.2014 08:35 9,8 C 73 % 1014,6 hPa 0,0 l/m 0,0 km/h (0 Bft) SW 225 5,2 C 16,1 C 0,0 km/h (0 Bft)
28.03.2014 08:40 10,1 C 72 % 1014,6 hPa 0,0 l/m 0,0 km/h (0 Bft) SW 225 5,3 C 16,1 C 0,0 km/h (0 Bft)
28.03.2014 08:45 10,3 C 72 % 1014,6 hPa 0,0 l/m 0,0 km/h (0 Bft) SW 225 5,5 C 16,1 C 0,0 km/h (0 Bft)
28.03.2014 08:50 10,6 C 69 % 1014,9 hPa 0,0 l/m 0,0 km/h (0 Bft) SW 225 5,2 C 16,1 C 0,0 km/h (0 Bft)
28.03.2014 08:55 11,6 C 70 % 1014,9 hPa 0,0 l/m 0,0 km/h (0 Bft) SW 225 6,3 C 16,1 C 0,0 km/h (0 Bft)
28.03.2014 09:00 12,1 C 72 % 1014,9 hPa 0,0 l/m 0,0 km/h (0 Bft) SW 225 7,2 C 16,1 C 0,0 km/h (0 Bft)
28.03.2014 09:05 12,4 C 73 % 1014,9 hPa 0,0 l/m 0,0 km/h (0 Bft) SW 225 7,7 C 16,1 C 0,0 km/h (0 Bft)
28.03.2014 09:10 12,8 C 72 % 1015,6 hPa 0,0 l/m 0,0 km/h (0 Bft) SW 225 7,9 C 16,1 C 0,0 km/h (0 Bft)
28.03.2014 09:15 12,4 C 64 % 1015,6 hPa 0,0 l/m 0,0 km/h (0 Bft) SW 225 5,8 C 16,1 C 0,0 km/h (0 Bft)
28.03.2014 09:20 12,9 C 69 % 1015,6 hPa 0,0 l/m 0,0 km/h (0 Bft) SW 225 7,4 C 16,1 C 0,0 km/h (0 Bft)
28.03.2014 09:25 13,8 C 69 % 1015,6 hPa 0,0 l/m 0,0 km/h (0 Bft) SW 225 8,2 C 16,1 C 0,0 km/h (0 Bft)
28.03.2014 09:30 13,9 C 67 % 1016,1 hPa 0,0 l/m 0,0 km/h (0 Bft) SW 225 7,9 C 16,1 C 0,0 km/h (0 Bft)
28.03.2014 09:35 15,3 C 63 % 1016,1 hPa 0,0 l/m 0,0 km/h (0 Bft) SW 225 8,3 C 16,1 C 0,0 km/h (0 Bft)
28.03.2014 09:40 14,6 C 56 % 1016,1 hPa 0,0 l/m 0,0 km/h (0 Bft) SW 225 5,9 C 16,1 C 0,0 km/h (0 Bft)
28.03.2014 09:45 13,5 C 42 % 1016,1 hPa 0,0 l/m 0,0 km/h (0 Bft) SW 225 0,8 C 16,1 C 0,0 km/h (0 Bft)
28.03.2014 09:50 13,2 C 45 % 1016,4 hPa 0,0 l/m 0,0 km/h (0 Bft) SW 225 1,5 C 16,1 C 0,0 km/h (0 Bft)
28.03.2014 09:55 13,2 C 39 % 1016,4 hPa 0,0 l/m 0,0 km/h (0 Bft) SW 225 -0,4 C 16,1 C 0,0 km/h (0 Bft)
28.03.2014 10:00 12,4 C 41 % 1016,4 hPa 0,0 l/m 0,0 km/h (0 Bft) SW 225 -0,5 C 16,1 C 0,0 km/h (0 Bft)
28.03.2014 10:05 14,0 C 43 % 1016,4 hPa 0,0 l/m 0,0 km/h (0 Bft) SW 225 1,6 C 16,1 C 0,0 km/h (0 Bft)
28.03.2014 10:10 13,6 C 41 % 1016,7 hPa 0,0 l/m 0,0 km/h (0 Bft) SW 225 0,6 C 16,1 C 0,0 km/h (0 Bft)
28.03.2014 10:15 14,6 C 35 % 1016,7 hPa 0,0 l/m 0,0 km/h (0 Bft) SW 225 -0,7 C 16,1 C 0,0 km/h (0 Bft)
28.03.2014 10:20 14,6 C 38 % 1016,7 hPa 0,0 l/m 0,0 km/h (0 Bft) SW 225 0,4 C 16,1 C 0,0 km/h (0 Bft)
28.03.2014 10:25 14,6 C 38 % 1016,7 hPa 0,0 l/m 0,0 km/h (0 Bft) SW 225 0,4 C 16,1 C 0,0 km/h (0 Bft)
28.03.2014 10:30 14,2 C 34 % 1016,9 hPa 0,0 l/m 0,0 km/h (0 Bft) SW 225 -1,4 C 16,1 C 0,0 km/h (0 Bft)
28.03.2014 10:35 13,5 C 34 % 1016,9 hPa 0,0 l/m 0,0 km/h (0 Bft) SW 225 -2,0 C 16,1 C 0,0 km/h (0 Bft)
28.03.2014 10:40 14,7 C 36 % 1016,9 hPa 0,0 l/m 0,0 km/h (0 Bft) SW 225 -0,2 C 16,1 C 0,0 km/h (0 Bft)
28.03.2014 10:45 15,7 C 35 % 1016,9 hPa 0,0 l/m 0,0 km/h (0 Bft) SW 225 0,3 C 16,1 C 0,0 km/h (0 Bft)
28.03.2014 10:50 15,6 C 34 % 1017,0 hPa 0,0 l/m 0,0 km/h (0 Bft) SW 225 -0,2 C 16,1 C 0,0 km/h (0 Bft)
28.03.2014 10:55 15,8 C 35 % 1017,0 hPa 0,0 l/m 0,0 km/h (0 Bft) SW 225 0,4 C 16,1 C 0,0 km/h (0 Bft)
28.03.2014 11:00 16,2 C 35 % 1017,0 hPa 0,0 l/m 0,0 km/h (0 Bft) SW 225 0,7 C 16,1 C 0,0 km/h (0 Bft)
28.03.2014 11:05 14,8 C 31 % 1017,0 hPa 0,0 l/m 0,0 km/h (0 Bft) SW 225 -2,2 C 16,1 C 0,0 km/h (0 Bft)
28.03.2014 11:10 14,8 C 33 % 1017,2 hPa 0,0 l/m 0,0 km/h (0 Bft) SW 225 -1,3 C 16,1 C 0,0 km/h (0 Bft)
28.03.2014 11:15 16,3 C 35 % 1017,2 hPa 0,0 l/m 0,0 km/h (0 Bft) SW 225 0,8 C 16,1 C 0,0 km/h (0 Bft)
28.03.2014 11:20 16,2 C 34 % 1017,2 hPa 0,0 l/m 0,0 km/h (0 Bft) SW 225 0,3 C 16,1 C 0,0 km/h (0 Bft)
28.03.2014 11:25 16,4 C 35 % 1017,2 hPa 0,0 l/m 0,0 km/h (0 Bft) SW 225 0,9 C 16,1 C 0,0 km/h (0 Bft)
28.03.2014 11:30 16,0 C 34 % 1017,2 hPa 0,0 l/m 0,0 km/h (0 Bft) SW 225 0,2 C 16,1 C 0,0 km/h (0 Bft)
28.03.2014 11:35 15,2 C 33 % 1017,2 hPa 0,0 l/m 0,0 km/h (0 Bft) SW 225 -1,0 C 16,1 C 0,0 km/h (0 Bft)
28.03.2014 11:40 16,7 C 35 % 1017,2 hPa 0,0 l/m 0,0 km/h (0 Bft) SW 225 1,2 C 16,1 C 0,0 km/h (0 Bft)
28.03.2014 11:45 16,1 C 33 % 1017,2 hPa 0,0 l/m 0,0 km/h (0 Bft) SW 225 -0,2 C 16,1 C 0,0 km/h (0 Bft)
28.03.2014 11:50 16,1 C 34 % 1017,3 hPa 0,0 l/m 0,0 km/h (0 Bft) SW 225 0,2 C 16,1 C 0,0 km/h (0 Bft)
28.03.2014 11:55 16,2 C 34 % 1017,3 hPa 0,0 l/m 0,0 km/h (0 Bft) SW 225 0,3 C 16,1 C 0,0 km/h (0 Bft)
28.03.2014 12:00 15,9 C 34 % 1017,3 hPa 0,0 l/m 0,0 km/h (0 Bft) SW 225 0,1 C 16,1 C 0,0 km/h (0 Bft)
28.03.2014 12:05 17,2 C 35 % 1017,3 hPa 0,0 l/m 0,0 km/h (0 Bft) SW 225 1,6 C 16,1 C 0,0 km/h (0 Bft)
28.03.2014 12:10 17,2 C 34 % 1017,4 hPa 0,0 l/m 0,0 km/h (0 Bft) SW 225 1,2 C 16,1 C 0,0 km/h (0 Bft)
28.03.2014 12:15 14,1 C 34 % 1017,4 hPa 0,0 l/m 0,0 km/h (0 Bft) SW 225 -1,5 C 16,1 C 0,0 km/h (0 Bft)
28.03.2014 12:20 14,2 C 35 % 1017,4 hPa 0,0 l/m 0,0 km/h (0 Bft) SW 225 -1,0 C 16,1 C 0,0 km/h (0 Bft)
28.03.2014 12:23 12,4 C 39 % 1017,4 hPa 0,0 l/m 0,0 km/h (0 Bft) SW 225 -1,2 C 16,1 C 0,0 km/h (0 Bft)
28.03.2014 12:25 12,4 C 39 % 1017,4 hPa 0,0 l/m 0,0 km/h (0 Bft) SW 225 -1,2 C 16,1 C 0,0 km/h (0 Bft)
28.03.2014 12:30 12,7 C 39 % 1017,2 hPa 0,0 l/m 0,0 km/h (0 Bft) SW 225 -0,9 C 16,1 C 0,0 km/h (0 Bft)
28.03.2014 12:35 13,5 C 40 % 1017,2 hPa 0,0 l/m 0,0 km/h (0 Bft) SW 225 0,2 C 16,1 C 0,0 km/h (0 Bft)
28.03.2014 12:40 12,0 C 43 % 1017,2 hPa 0,0 l/m 0,0 km/h (0 Bft) SW 225 -0,2 C 16,1 C 0,0 km/h (0 Bft)
28.03.2014 12:45 11,5 C 45 % 1017,2 hPa 0,0 l/m 0,0 km/h (0 Bft) SW 225 -0,0 C 16,1 C 0,0 km/h (0 Bft)
28.03.2014 12:50 12,2 C 47 % 1017,1 hPa 0,0 l/m 0,0 km/h (0 Bft) SW 225 1,2 C 16,1 C 0,0 km/h (0 Bft)
28.03.2014 12:55 12,9 C 47 % 1017,1 hPa 0,0 l/m 0,0 km/h (0 Bft) SW 225 1,9 C 16,1 C 0,0 km/h (0 Bft)
28.03.2014 13:00 12,4 C 46 % 1017,1 hPa 0,0 l/m 0,0 km/h (0 Bft) SW 225 1,1 C 16,1 C 0,0 km/h (0 Bft)
28.03.2014 13:05 12,5 C 46 % 1017,1 hPa 0,0 l/m 0,0 km/h (0 Bft) SW 225 1,2 C 16,1 C 0,0 km/h (0 Bft)
28.03.2014 13:10 13,4 C 45 % 1017,1 hPa 0,0 l/m 0,0 km/h (0 Bft) SW 225 1,7 C 16,1 C 0,0 km/h (0 Bft)
28.03.2014 13:15 12,7 C 46 % 1017,1 hPa 0,0 l/m 0,0 km/h (0 Bft) SW 225 1,4 C 16,1 C 0,0 km/h (0 Bft)
28.03.2014 13:20 12,6 C 46 % 1017,1 hPa 0,0 l/m 0,0 km/h (0 Bft) SW 225 1,3 C 16,1 C 0,0 km/h (0 Bft)
28.03.2014 13:25 12,2 C 46 % 1017,1 hPa 0,0 l/m 0,0 km/h (0 Bft) SW 225 0,9 C 16,1 C 0,0 km/h (0 Bft)
28.03.2014 13:30 11,9 C 47 % 1016,9 hPa 0,0 l/m 0,0 km/h (0 Bft) SW 225 1,0 C 16,1 C 0,0 km/h (0 Bft)
28.03.2014 13:35 11,7 C 48 % 1016,9 hPa 0,0 l/m 0,0 km/h (0 Bft) SW 225 1,1 C 16,1 C 0,0 km/h (0 Bft)
28.03.2014 13:40 11,3 C 49 % 1016,9 hPa 0,0 l/m 0,0 km/h (0 Bft) SW 225 1,0 C 16,1 C 0,0 km/h (0 Bft)
28.03.2014 13:45 12,8 C 48 % 1016,9 hPa 0,0 l/m 0,0 km/h (0 Bft) SW 225 2,1 C 16,1 C 0,0 km/h (0 Bft)
28.03.2014 13:50 13,8 C 45 % 1016,8 hPa 0,0 l/m 0,0 km/h (0 Bft) SW 225 2,1 C 16,1 C 0,0 km/h (0 Bft)
28.03.2014 13:55 14,1 C 40 % 1016,8 hPa 0,0 l/m 0,0 km/h (0 Bft) SW 225 0,7 C 16,1 C 0,0 km/h (0 Bft)
28.03.2014 14:00 13,5 C 41 % 1016,8 hPa 0,0 l/m 0,0 km/h (0 Bft) SW 225 0,5 C 16,1 C 0,0 km/h (0 Bft)
28.03.2014 14:05 14,8 C 39 % 1016,8 hPa 0,0 l/m 0,0 km/h (0 Bft) SW 225 1,0 C 16,1 C 0,0 km/h (0 Bft)
28.03.2014 14:10 14,2 C 38 % 1016,9 hPa 0,0 l/m 0,0 km/h (0 Bft) SW 225 0,1 C 16,1 C 0,0 km/h (0 Bft)
28.03.2014 14:15 13,2 C 41 % 1016,9 hPa 0,0 l/m 0,0 km/h (0 Bft) SW 225 0,2 C 16,1 C 0,0 km/h (0 Bft)
28.03.2014 14:20 12,5 C 44 % 1016,9 hPa 0,0 l/m 0,0 km/h (0 Bft) SW 225 0,6 C 16,1 C 0,0 km/h (0 Bft)
28.03.2014 14:25 12,6 C 45 % 1016,9 hPa 0,0 l/m 0,0 km/h (0 Bft) SW 225 1,0 C 16,1 C 0,0 km/h (0 Bft)
28.03.2014 14:30 12,9 C 46 % 1016,7 hPa 0,0 l/m 0,0 km/h (0 Bft) SW 225 1,6 C 16,1 C 0,0 km/h (0 Bft)
28.03.2014 14:35 14,4 C 40 % 1016,7 hPa 0,0 l/m 0,0 km/h (0 Bft) SW 225 1,0 C 16,1 C 0,0 km/h (0 Bft)
28.03.2014 14:40 14,6 C 40 % 1016,7 hPa 0,0 l/m 0,0 km/h (0 Bft) SW 225 1,2 C 16,1 C 0,0 km/h (0 Bft)
28.03.2014 14:45 15,6 C 38 % 1016,7 hPa 0,0 l/m 0,0 km/h (0 Bft) SW 225 1,3 C 16,1 C 0,0 km/h (0 Bft)
28.03.2014 14:50 15,7 C 38 % 1016,9 hPa 0,0 l/m 0,0 km/h (0 Bft) SW 225 1,4 C 16,1 C 0,0 km/h (0 Bft)
28.03.2014 14:55 15,3 C 35 % 1016,9 hPa 0,0 l/m 0,0 km/h (0 Bft) SW 225 -0,1 C 16,1 C 0,0 km/h (0 Bft)
28.03.2014 15:00 15,4 C 37 % 1016,9 hPa 0,0 l/m 0,0 km/h (0 Bft) SW 225 0,8 C 16,1 C 0,0 km/h (0 Bft)
28.03.2014 15:05 15,0 C 37 % 1016,9 hPa 0,0 l/m 0,0 km/h (0 Bft) SW 225 0,4 C 16,1 C 0,0 km/h (0 Bft)
28.03.2014 15:10 15,3 C 36 % 1017,0 hPa 0,0 l/m 0,0 km/h (0 Bft) SW 225 0,3 C 16,1 C 0,0 km/h (0 Bft)
28.03.2014 15:15 13,9 C 37 % 1017,0 hPa 0,0 l/m 0,0 km/h (0 Bft) SW 225 -0,5 C 16,1 C 0,0 km/h (0 Bft)
28.03.2014 15:20 13,5 C 38 % 1017,0 hPa 0,0 l/m 0,0 km/h (0 Bft) SW 225 -0,5 C 16,1 C 0,0 km/h (0 Bft)
28.03.2014 15:25 14,2 C 36 % 1017,0 hPa 0,0 l/m 0,0 km/h (0 Bft) SW 225 -0,6 C 16,1 C 0,0 km/h (0 Bft)
28.03.2014 15:30 13,6 C 36 % 1016,9 hPa 0,0 l/m 0,0 km/h (0 Bft) SW 225 -1,2 C 16,1 C 0,0 km/h (0 Bft)
28.03.2014 15:35 13,9 C 37 % 1016,9 hPa 0,0 l/m 0,0 km/h (0 Bft) SW 225 -0,5 C 16,1 C 0,0 km/h (0 Bft)
28.03.2014 15:40 14,2 C 36 % 1016,9 hPa 0,0 l/m 0,0 km/h (0 Bft) SW 225 -0,6 C 16,1 C 0,0 km/h (0 Bft)
28.03.2014 15:45 13,9 C 35 % 1016,9 hPa 0,0 l/m 0,0 km/h (0 Bft) SW 225 -1,3 C 16,1 C 0,0 km/h (0 Bft)
28.03.2014 15:50 14,0 C 35 % 1016,3 hPa 0,0 l/m 0,0 km/h (0 Bft) SW 225 -1,2 C 16,1 C 0,0 km/h (0 Bft)
28.03.2014 15:55 14,1 C 36 % 1016,3 hPa 0,0 l/m 0,0 km/h (0 Bft) SW 225 -0,7 C 16,1 C 0,0 km/h (0 Bft)
28.03.2014 16:00 14,0 C 35 % 1016,3 hPa 0,0 l/m 0,0 km/h (0 Bft) SW 225 -1,2 C 16,1 C 0,0 km/h (0 Bft)
28.03.2014 16:05 13,4 C 37 % 1016,3 hPa 0,0 l/m 0,0 km/h (0 Bft) SW 225 -1,0 C 16,1 C 0,0 km/h (0 Bft)
28.03.2014 16:10 13,3 C 36 % 1016,4 hPa 0,0 l/m 0,0 km/h (0 Bft) SW 225 -1,4 C 16,1 C 0,0 km/h (0 Bft)
28.03.2014 16:15 13,3 C 38 % 1016,4 hPa 0,0 l/m 0,0 km/h (0 Bft) SW 225 -0,7 C 16,1 C 0,0 km/h (0 Bft)
28.03.2014 16:20 13,1 C 39 % 1016,4 hPa 0,0 l/m 0,0 km/h (0 Bft) SW 225 -0,5 C 16,1 C 0,0 km/h (0 Bft)
28.03.2014 16:25 13,0 C 38 % 1016,4 hPa 0,0 l/m 0,0 km/h (0 Bft) SW 225 -1,0 C 16,1 C 0,0 km/h (0 Bft)
28.03.2014 16:30 12,9 C 39 % 1016,2 hPa 0,0 l/m 0,0 km/h (0 Bft) SW 225 -0,7 C 16,1 C 0,0 km/h (0 Bft)
28.03.2014 16:35 12,9 C 39 % 1016,2 hPa 0,0 l/m 0,0 km/h (0 Bft) SW 225 -0,7 C 16,1 C 0,0 km/h (0 Bft)
28.03.2014 16:40 12,6 C 40 % 1016,2 hPa 0,0 l/m 0,0 km/h (0 Bft) SW 225 -0,6 C 16,1 C 0,0 km/h (0 Bft)
28.03.2014 16:45 12,5 C 41 % 1016,2 hPa 0,0 l/m 0,0 km/h (0 Bft) SW 225 -0,4 C 16,1 C 0,0 km/h (0 Bft)
28.03.2014 16:50 12,3 C 42 % 1016,3 hPa 0,0 l/m 0,0 km/h (0 Bft) SW 225 -0,2 C 16,1 C 0,0 km/h (0 Bft)
28.03.2014 16:55 12,1 C 43 % 1016,3 hPa 0,0 l/m 0,0 km/h (0 Bft) SW 225 -0,1 C 16,1 C 0,0 km/h (0 Bft)
28.03.2014 17:00 11,9 C 43 % 1016,3 hPa 0,0 l/m 0,0 km/h (0 Bft) SW 225 -0,3 C 16,1 C 0,0 km/h (0 Bft)
28.03.2014 17:05 11,8 C 43 % 1016,3 hPa 0,0 l/m 0,0 km/h (0 Bft) SW 225 -0,4 C 16,1 C 0,0 km/h (0 Bft)
28.03.2014 17:10 11,9 C 43 % 1016,4 hPa 0,0 l/m 0,0 km/h (0 Bft) SW 225 -0,3 C 16,1 C 0,0 km/h (0 Bft)
28.03.2014 17:15 11,6 C 42 % 1016,4 hPa 0,0 l/m 0,0 km/h (0 Bft) SW 225 -0,9 C 16,1 C 0,0 km/h (0 Bft)
28.03.2014 17:20 11,5 C 44 % 1016,4 hPa 0,0 l/m 0,0 km/h (0 Bft) SW 225 -0,3 C 16,1 C 0,0 km/h (0 Bft)
28.03.2014 17:23 11,3 C 45 % 1016,4 hPa 0,0 l/m 0,0 km/h (0 Bft) SW 225 -0,2 C 16,1 C 0,0 km/h (0 Bft)
28.03.2014 17:25 11,3 C 45 % 1016,4 hPa 0,0 l/m 0,0 km/h (0 Bft) SW 225 -0,2 C 16,1 C 0,0 km/h (0 Bft)
28.03.2014 17:30 11,3 C 45 % 1016,4 hPa 0,0 l/m 0,0 km/h (0 Bft) SW 225 -0,2 C 16,1 C 0,0 km/h (0 Bft)
28.03.2014 17:35 10,9 C 46 % 1016,4 hPa 0,0 l/m 0,0 km/h (0 Bft) SW 225 -0,3 C 16,1 C 0,0 km/h (0 Bft)
28.03.2014 17:40 10,6 C 47 % 1016,4 hPa 0,0 l/m 0,0 km/h (0 Bft) SW 225 -0,2 C 16,1 C 0,0 km/h (0 Bft)
28.03.2014 17:45 10,4 C 48 % 1016,4 hPa 0,0 l/m 0,0 km/h (0 Bft) SW 225 -0,1 C 16,1 C 0,0 km/h (0 Bft)
28.03.2014 17:50 10,1 C 48 % 1016,4 hPa 0,0 l/m 0,0 km/h (0 Bft) SW 225 -0,4 C 16,1 C 0,0 km/h (0 Bft)
28.03.2014 17:55 9,9 C 49 % 1016,4 hPa 0,0 l/m 0,0 km/h (0 Bft) SW 225 -0,3 C 16,1 C 0,0 km/h (0 Bft)
28.03.2014 18:00 9,8 C 49 % 1016,4 hPa 0,0 l/m 0,0 km/h (0 Bft) SW 225 -0,4 C 16,1 C 0,0 km/h (0 Bft)
28.03.2014 18:05 9,8 C 49 % 1016,4 hPa 0,0 l/m 0,0 km/h (0 Bft) SW 225 -0,4 C 16,1 C 0,0 km/h (0 Bft)
28.03.2014 18:10 9,5 C 50 % 1016,4 hPa 0,0 l/m 0,0 km/h (0 Bft) SW 225 -0,4 C 16,1 C 0,0 km/h (0 Bft)
28.03.2014 18:15 9,4 C 51 % 1016,4 hPa 0,0 l/m 0,0 km/h (0 Bft) SW 225 -0,2 C 16,1 C 0,0 km/h (0 Bft)
28.03.2014 18:20 9,4 C 51 % 1016,4 hPa 0,0 l/m 0,0 km/h (0 Bft) SW 225 -0,2 C 16,1 C 0,0 km/h (0 Bft)
28.03.2014 18:25 9,3 C 51 % 1016,4 hPa 0,0 l/m 0,0 km/h (0 Bft) SW 225 -0,3 C 16,1 C 0,0 km/h (0 Bft)
28.03.2014 18:30 9,1 C 52 % 1016,8 hPa 0,0 l/m 0,0 km/h (0 Bft) SW 225 -0,2 C 16,1 C 0,0 km/h (0 Bft)
28.03.2014 18:35 8,6 C 54 % 1016,8 hPa 0,0 l/m 0,0 km/h (0 Bft) SW 225 -0,2 C 16,1 C 0,0 km/h (0 Bft)
28.03.2014 18:40 8,4 C 55 % 1016,8 hPa 0,0 l/m 0,0 km/h (0 Bft) SW 225 -0,1 C 16,1 C 0,0 km/h (0 Bft)
28.03.2014 18:45 8,0 C 56 % 1016,8 hPa 0,0 l/m 0,0 km/h (0 Bft) SW 225 -0,2 C 16,1 C 0,0 km/h (0 Bft)
28.03.2014 18:50 7,8 C 57 % 1017,2 hPa 0,0 l/m 0,0 km/h (0 Bft) SW 225 -0,2 C 16,1 C 0,0 km/h (0 Bft)
28.03.2014 18:55 7,2 C 57 % 1017,2 hPa 0,0 l/m 0,0 km/h (0 Bft) SW 225 -0,7 C 16,1 C 0,0 km/h (0 Bft)
28.03.2014 19:00 6,1 C 58 % 1017,2 hPa 0,0 l/m 0,0 km/h (0 Bft) SW 225 -1,5 C 16,1 C 0,0 km/h (0 Bft)
28.03.2014 19:05 5,9 C 59 % 1017,2 hPa 0,0 l/m 0,0 km/h (0 Bft) SW 225 -1,5 C 16,1 C 0,0 km/h (0 Bft)
28.03.2014 19:10 5,6 C 61 % 1017,1 hPa 0,0 l/m 0,0 km/h (0 Bft) SW 225 -1,3 C 16,1 C 0,0 km/h (0 Bft)
28.03.2014 19:15 5,1 C 61 % 1017,1 hPa 0,0 l/m 0,0 km/h (0 Bft) SW 225 -1,8 C 16,1 C 0,0 km/h (0 Bft)
28.03.2014 19:20 4,7 C 62 % 1017,1 hPa 0,0 l/m 0,0 km/h (0 Bft) SW 225 -1,9 C 16,1 C 0,0 km/h (0 Bft)
28.03.2014 19:25 4,2 C 63 % 1017,1 hPa 0,0 l/m 0,0 km/h (0 Bft) SW 225 -2,2 C 16,1 C 0,0 km/h (0 Bft)
28.03.2014 19:30 4,2 C 64 % 1017,2 hPa 0,0 l/m 0,0 km/h (0 Bft) SW 225 -2,0 C 16,1 C 0,0 km/h (0 Bft)
28.03.2014 19:35 4,5 C 66 % 1017,2 hPa 0,0 l/m 0,0 km/h (0 Bft) SW 225 -1,3 C 16,1 C 0,0 km/h (0 Bft)
28.03.2014 19:40 4,7 C 68 % 1017,2 hPa 0,0 l/m 0,0 km/h (0 Bft) SW 225 -0,7 C 16,1 C 0,0 km/h (0 Bft)
28.03.2014 19:45 4,2 C 68 % 1017,2 hPa 0,0 l/m 0,0 km/h (0 Bft) SW 225 -1,2 C 16,1 C 0,0 km/h (0 Bft)
28.03.2014 19:50 4,3 C 69 % 1017,3 hPa 0,0 l/m 0,0 km/h (0 Bft) SW 225 -0,9 C 16,1 C 0,0 km/h (0 Bft)
28.03.2014 19:55 3,8 C 70 % 1017,3 hPa 0,0 l/m 0,0 km/h (0 Bft) SW 225 -1,2 C 16,1 C 0,0 km/h (0 Bft)
28.03.2014 20:00 3,7 C 70 % 1017,3 hPa 0,0 l/m 0,0 km/h (0 Bft) SW 225 -1,3 C 16,1 C 0,0 km/h (0 Bft)
28.03.2014 20:05 3,0 C 70 % 1017,3 hPa 0,0 l/m 0,0 km/h (0 Bft) SW 225 -1,9 C 16,1 C 0,0 km/h (0 Bft)
28.03.2014 20:10 2,9 C 72 % 1017,4 hPa 0,0 l/m 0,0 km/h (0 Bft) SW 225 -1,6 C 16,1 C 0,0 km/h (0 Bft)
28.03.2014 20:15 2,8 C 72 % 1017,4 hPa 0,0 l/m 0,0 km/h (0 Bft) SW 225 -1,7 C 16,1 C 0,0 km/h (0 Bft)
28.03.2014 20:20 2,4 C 72 % 1017,4 hPa 0,0 l/m 0,0 km/h (0 Bft) SW 225 -2,1 C 16,1 C 0,0 km/h (0 Bft)
28.03.2014 20:25 2,0 C 72 % 1017,4 hPa 0,0 l/m 0,0 km/h (0 Bft) SW 225 -2,5 C 16,1 C 0,0 km/h (0 Bft)
28.03.2014 20:30 1,9 C 73 % 1017,7 hPa 0,0 l/m 0,0 km/h (0 Bft) SW 225 -2,4 C 16,1 C 0,0 km/h (0 Bft)
28.03.2014 20:35 1,9 C 74 % 1017,7 hPa 0,0 l/m 0,0 km/h (0 Bft) SW 225 -2,2 C 16,1 C 0,0 km/h (0 Bft)
28.03.2014 20:40 1,8 C 75 % 1017,7 hPa 0,0 l/m 0,0 km/h (0 Bft) SW 225 -2,1 C 16,1 C 0,0 km/h (0 Bft)
28.03.2014 20:45 1,7 C 76 % 1017,7 hPa 0,0 l/m 0,0 km/h (0 Bft) SW 225 -2,1 C 16,1 C 0,0 km/h (0 Bft)
28.03.2014 20:50 1,6 C 76 % 1017,9 hPa 0,0 l/m 0,0 km/h (0 Bft) SW 225 -2,2 C 16,1 C 0,0 km/h (0 Bft)
28.03.2014 20:55 1,8 C 77 % 1017,9 hPa 0,0 l/m 0,0 km/h (0 Bft) SW 225 -1,8 C 16,1 C 0,0 km/h (0 Bft)
28.03.2014 21:00 1,6 C 77 % 1017,9 hPa 0,0 l/m 0,0 km/h (0 Bft) SW 225 -2,0 C 16,1 C 0,0 km/h (0 Bft)
28.03.2014 21:05 1,4 C 77 % 1017,9 hPa 0,0 l/m 0,0 km/h (0 Bft) SW 225 -2,2 C 16,1 C 0,0 km/h (0 Bft)
28.03.2014 21:10 1,3 C 77 % 1018,1 hPa 0,0 l/m 0,0 km/h (0 Bft) SW 225 -2,3 C 16,1 C 0,0 km/h (0 Bft)
28.03.2014 21:15 1,3 C 77 % 1018,1 hPa 0,0 l/m 0,0 km/h (0 Bft) SW 225 -2,3 C 16,1 C 0,0 km/h (0 Bft)
28.03.2014 21:20 1,2 C 77 % 1018,1 hPa 0,0 l/m 0,0 km/h (0 Bft) SW 225 -2,4 C 16,1 C 0,0 km/h (0 Bft)
28.03.2014 21:25 1,0 C 78 % 1018,1 hPa 0,0 l/m 0,0 km/h (0 Bft) SW 225 -2,4 C 16,1 C 0,0 km/h (0 Bft)
28.03.2014 21:30 1,1 C 78 % 1018,1 hPa 0,0 l/m 0,0 km/h (0 Bft) SW 225 -2,3 C 16,1 C 0,0 km/h (0 Bft)
28.03.2014 21:35 1,1 C 79 % 1018,1 hPa 0,0 l/m 0,0 km/h (0 Bft) SW 225 -2,1 C 16,1 C 0,0 km/h (0 Bft)
28.03.2014 21:40 1,4 C 79 % 1018,1 hPa 0,0 l/m 0,0 km/h (0 Bft) SW 225 -1,8 C 16,1 C 0,0 km/h (0 Bft)
28.03.2014 21:45 0,9 C 79 % 1018,1 hPa 0,0 l/m 0,0 km/h (0 Bft) SW 225 -2,3 C 16,1 C 0,0 km/h (0 Bft)
28.03.2014 21:50 0,7 C 79 % 1018,2 hPa 0,0 l/m 0,0 km/h (0 Bft) SW 225 -2,5 C 16,1 C 0,0 km/h (0 Bft)
28.03.2014 21:55 0,8 C 80 % 1018,2 hPa 0,0 l/m 0,0 km/h (0 Bft) SW 225 -2,2 C 16,1 C 0,0 km/h (0 Bft)
28.03.2014 22:00 0,6 C 79 % 1018,2 hPa 0,0 l/m 0,0 km/h (0 Bft) SW 225 -2,6 C 16,1 C 0,0 km/h (0 Bft)
28.03.2014 22:05 0,9 C 80 % 1018,2 hPa 0,0 l/m 0,0 km/h (0 Bft) SW 225 -2,2 C 16,1 C 0,0 km/h (0 Bft)
28.03.2014 22:10 0,7 C 79 % 1018,4 hPa 0,0 l/m 0,0 km/h (0 Bft) SW 225 -2,5 C 16,1 C 0,0 km/h (0 Bft)
28.03.2014 22:15 0,5 C 79 % 1018,4 hPa 0,0 l/m 0,0 km/h (0 Bft) SW 225 -2,7 C 16,1 C 0,0 km/h (0 Bft)
28.03.2014 22:20 0,6 C 81 % 1018,4 hPa 0,0 l/m 0,0 km/h (0 Bft) SW 225 -2,3 C 16,1 C 0,0 km/h (0 Bft)
28.03.2014 22:23 0,6 C 82 % 1018,4 hPa 0,0 l/m 0,0 km/h (0 Bft) SW 225 -2,1 C 16,1 C 0,0 km/h (0 Bft)
28.03.2014 22:25 0,6 C 82 % 1018,4 hPa 0,0 l/m 0,0 km/h (0 Bft) SW 225 -2,1 C 16,1 C 0,0 km/h (0 Bft)
28.03.2014 22:30 0,7 C 81 % 1018,6 hPa 0,0 l/m 0,0 km/h (0 Bft) SW 225 -2,2 C 16,1 C 0,0 km/h (0 Bft)
28.03.2014 22:35 0,4 C 81 % 1018,6 hPa 0,0 l/m 0,0 km/h (0 Bft) SW 225 -2,5 C 16,1 C 0,0 km/h (0 Bft)
28.03.2014 22:40 0,5 C 81 % 1018,6 hPa 0,0 l/m 0,0 km/h (0 Bft) SW 225 -2,4 C 16,1 C 0,0 km/h (0 Bft)
28.03.2014 22:45 0,4 C 81 % 1018,6 hPa 0,0 l/m 0,0 km/h (0 Bft) SW 225 -2,5 C 16,1 C 0,0 km/h (0 Bft)
28.03.2014 22:50 0,3 C 82 % 1018,5 hPa 0,0 l/m 0,0 km/h (0 Bft) SW 225 -2,4 C 16,1 C 0,0 km/h (0 Bft)
28.03.2014 22:55 0,1 C 82 % 1018,5 hPa 0,0 l/m 0,0 km/h (0 Bft) SW 225 -2,6 C 16,1 C 0,0 km/h (0 Bft)
28.03.2014 23:00 0,0 C 82 % 1018,5 hPa 0,0 l/m 0,0 km/h (0 Bft) SW 225 -2,7 C 16,1 C 0,0 km/h (0 Bft)
28.03.2014 23:05 0,1 C 82 % 1018,5 hPa 0,0 l/m 0,0 km/h (0 Bft) SW 225 -2,6 C 16,1 C 0,0 km/h (0 Bft)
28.03.2014 23:10 -0,3 C 82 % 1018,6 hPa 0,0 l/m 0,0 km/h (0 Bft) SW 225 -3,0 C 16,1 C 0,0 km/h (0 Bft)
28.03.2014 23:15 -0,5 C 82 % 1018,6 hPa 0,0 l/m 0,0 km/h (0 Bft) SW 225 -3,2 C 16,1 C 0,0 km/h (0 Bft)
28.03.2014 23:20 -0,2 C 83 % 1018,6 hPa 0,0 l/m 0,0 km/h (0 Bft) SW 225 -2,7 C 16,1 C 0,0 km/h (0 Bft)
28.03.2014 23:25 -0,3 C 83 % 1018,6 hPa 0,0 l/m 0,0 km/h (0 Bft) SW 225 -2,8 C 16,1 C 0,0 km/h (0 Bft)
28.03.2014 23:30 -0,4 C 83 % 1018,6 hPa 0,0 l/m 0,0 km/h (0 Bft) SW 225 -2,9 C 16,1 C 0,0 km/h (0 Bft)
28.03.2014 23:35 -0,4 C 83 % 1018,6 hPa 0,0 l/m 0,0 km/h (0 Bft) SW 225 -2,9 C 16,1 C 0,0 km/h (0 Bft)
28.03.2014 23:40 0,1 C 85 % 1018,6 hPa 0,0 l/m 0,0 km/h (0 Bft) SW 225 -2,1 C 16,1 C 0,0 km/h (0 Bft)
28.03.2014 23:45 0,1 C 85 % 1018,6 hPa 0,0 l/m 0,0 km/h (0 Bft) SW 225 -2,1 C 16,1 C 0,0 km/h (0 Bft)
28.03.2014 23:50 0,2 C 85 % 1018,8 hPa 0,0 l/m 0,0 km/h (0 Bft) SW 225 -2,0 C 16,1 C 0,0 km/h (0 Bft)
28.03.2014 23:55 -0,3 C 84 % 1018,8 hPa 0,0 l/m 0,0 km/h (0 Bft) SW 225 -2,7 C 16,1 C 0,0 km/h (0 Bft)
_ Min-Zeit 03:15 11:05 00:45 - 23:55 - - 03:15 23:55 23:55
Minimum _ -2,9 C 31 % 1011,1 hPa - 0,0 km/h (0 Bft) - - -4,8 C 16,1 C 0,0 km/h (0 Bft)
_ Max-Zeit 12:10 04:05 23:55 23:55 23:55 - - 09:35 23:55 23:55
Maximum _ 17,2 C 89 % 1018,8 hPa 0,0 l/m 0,0 km/h
SW (0 Bft)
- - 8,3 C 16,1 C 0,0 km/h
SW (0 Bft)
Durchschnitt _ 5,8 C 66 % 1015,4 hPa #0,0 l/m 0,0 km/h (0 Bft) - - - -1,1 C 16,1 C 0,0 km/h (0 Bft)